RH
17 25 35 41 74 82 100 41 100 100 100 100 80 48 51 33 42 35 34 28 92 100 58 22 17 11 10 8 8 12 40 67 55 47 46 60 71 81 100 100 90 94 99 73
18 21 20 20 17 52 59 46 79 76 58 49 74 58 26 26 47 34 51 33 28 84 76 52 66 10 10 10 8 7 8 18 37 57 57 51 59 71 100 98 92 100 100 81
15 16 16 18 17 21 21 58 52 36 48 60 100 98 52 92 100 100 100 63 39 65 63 87 98 35 16 15 12 10 9 8 7 13 45 49 46 58 85 100 84 98 100 81
20 18 14 15 15 17 12 28 49 37 42 54 78 100 100 92 100 100 76 72 30 45 48 27 46 74 39 38 20 21 19 17 9 7 8 22 40 47 48 68 99 93 87 98
15 13 18 15 62 100 100 50 52 71 26 43 39 37 49 92 94 100 72 71 23 22 30 50 71 45 62 37 45 42 28 33 23 9 7 13 19 50 56 50 97 85 85 79
11 10 10 17 45 86 100 72 61 51 32 28 28 67 49 100 100 100 68 77 15 20 14 100 100 92 95 39 58 57 45 37 49 74 29 24 28 52 58 72 70 100 97 100
9 9 8 8 16 81 100 98 62 52 22 39 78 100 95 100 100 100 86 73 36 53 15 26 76 96 92 65 48 74 62 45 49 100 94 78 66 74 62 68 76 85 100 100
12 11 11 10 10 16 31 99 40 61 42 86 74 99 100 100 87 89 100 94 84 61 21 11 8 9 56 62 54 60 72 56 44 68 100 100 97 95 87 73 90 94 92 100
18 20 17 12 10 8 16 79 63 19 41 100 43 98 100 100 100 100 92 44 43 39 26 26 9 13 31 53 19 38 66 65 65 49 71 98 94 93 90 83 65 57 60 86
22 22 19 15 15 14 10 16 24 20 49 53 53 94 100 100 72 100 95 54 37 37 22 30 18 14 37 40 29 29 51 62 61 47 50 73 61 73 99 97 82 88 56 74
20 20 19 15 16 84 21 11 14 17 21 60 61 92 100 98 100 83 81 78 62 57 14 28 28 16 16 15 29 23 36 46 44 51 59 84 75 63 64 86 85 100 72 59
19 18 17 15 16 26 14 11 12 15 19 19 36 58 100 61 100 86 84 100 93 79 16 34 50 22 26 21 32 42 23 31 42 35 64 70 81 71 66 73 63 100 92 98
18 17 19 16 16 18 13 11 11 16 16 21 84 81 50 52 88 96 96 100 86 65 53 29 45 19 28 26 38 50 39 40 32 22 17 21 78 60 54 51 53 61 100 100
18 17 16 16 16 15 13 10 12 13 15 21 36 64 30 25 51 100 94 100 52 98 68 38 49 23 35 34 51 82 87 66 43 45 40 33 52 54 38 35 35 86 100 100
18 18 16 15 16 15 13 12 11 10 11 18 20 24 26 24 23 70 82 94 71 52 28 30 47 27 41 88 100 100 100 83 98 88 49 26 15 72 86 98 100 100 78 90
26 23 18 21 23 21 16 15 12 12 10 16 19 24 26 50 55 100 100 98 15 12 14 36 41 31 37 77 100 100 100 100 100 100 90 53 71 100 100 100 100 100 86 94
26 27 23 23 22 21 17 19 15 14 14 20 22 35 25 49 60 100 95 82 62 14 12 28 41 32 28 47 67 100 100 100 71 69 98 98 100 100 100 100 100 84 58 72
24 22 20 24 19 16 34 23 20 17 15 14 21 33 30 90 100 97 100 99 89 94 72 20 44 25 33 33 54 74 99 100 96 72 100 98 100 100 100 100 100 83 93 99
31 26 26 31 23 25 25 27 22 20 21 15 15 27 98 58 93 100 76 100 100 99 100 42 43 25 37 25 50 44 89 95 100 76 100 68 100 100 100 100 100 100 100 91
28 29 25 23 22 26 27 33 29 20 19 16 11 20 99 63 55 54 69 99 96 100 89 21 37 33 33 23 38 43 80 96 100 83 100 92 100 100 100 100 97 99 81 89
28 27 29 29 24 27 34 33 21 24 19 17 13 12 20 69 57 38 88 87 98 84 100 97 21 34 24 24 31 44 74 65 81 97 100 100 100 100 100 100 99 99 99 82
34 30 26 30 26 26 30 30 22 20 20 18 15 14 13 26 89 77 72 81 90 81 100 90 24 38 35 25 23 40 59 72 79 73 87 99 100 100 93 88 76 73 62 61
38 37 31 27 25 31 40 28 20 20 25 25 18 17 14 15 22 20 18 65 99 85 100 76 80 63 52 25 15 39 46 70 100 98 74 80 79 84 77 63 54 49 62 84
43 47 29 30 30 28 30 21 15 17 20 27 21 19 16 13 18 22 20 11 14 24 70 90 94 100 55 26 21 23 39 70 100 98 100 100 79 68 64 54 75 86 75 88
42 48 42 32 32 29 26 23 18 17 26 34 28 20 17 14 13 39 20 12 14 18 30 100 100 96 98 31 20 24 25 50 70 67 75 85 89 100 100 100 94 78 78 75
52 42 36 33 31 32 27 24 17 19 26 30 25 22 21 18 13 12 17 17 14 14 22 100 90 100 85 33 35 16 33 16 28 48 51 51 60 65 68 70 66 54 56 57
Wind_Speed
35 34 32 29 28 24 31 25 16 18 24 16 14 14 14 22 22 20 26 28 19 37 33 27 11 15 18 22 32 45 53 52 56 54 56 53 48 44 40 39 39 39 30 21
40 41 37 35 36 37 26 27 28 22 16 23 20 18 22 21 13 13 18 25 27 22 29 19 9 12 13 14 19 26 34 47 54 56 59 58 53 46 39 39 36 41 32 23
43 42 41 38 38 34 29 26 29 27 22 20 14 9 19 23 21 15 22 25 27 11 26 18 6 7 12 12 14 16 17 23 36 51 57 59 58 52 43 39 40 37 33 25
45 44 38 36 35 35 29 33 28 23 23 19 19 10 23 18 20 18 22 22 22 22 25 17 13 13 10 12 13 10 9 14 23 32 45 55 59 61 52 46 41 41 41 37
49 46 41 39 36 35 36 37 31 28 26 23 18 17 8 14 18 18 25 27 22 24 20 21 16 13 16 15 13 10 6 11 14 21 31 37 47 54 56 48 43 40 41 37
48 49 46 46 48 23 36 41 31 27 23 18 11 11 10 12 15 19 16 21 20 23 20 11 12 21 23 22 12 9 7 9 12 15 22 26 34 37 43 51 47 36 36 37
47 46 46 49 54 51 35 35 38 27 23 20 17 9 13 11 12 12 21 14 18 27 23 4 23 24 20 23 20 12 9 9 12 13 18 20 24 27 30 43 45 47 36 35
37 38 42 46 52 56 43 40 46 37 29 24 22 13 6 8 8 19 7 13 14 27 19 13 9 17 15 28 26 17 11 12 8 15 15 18 19 22 24 34 42 41 38 46
32 35 37 42 45 51 57 46 44 43 37 35 26 22 23 10 14 19 14 24 24 22 23 25 17 10 12 17 25 22 18 15 16 12 15 20 22 26 25 27 28 36 36 34
33 35 38 31 37 41 50 59 55 46 44 34 36 33 26 4 14 15 24 24 25 19 20 25 25 13 10 16 22 25 25 20 21 18 19 23 27 26 28 25 25 22 29 29
37 35 38 35 38 33 40 41 56 53 52 46 36 37 31 23 12 14 18 21 22 23 22 21 26 20 11 10 14 25 26 24 25 21 21 25 27 32 26 26 27 23 24 27
42 40 38 35 38 43 44 40 47 59 56 50 43 43 33 26 21 20 22 27 35 32 23 20 30 23 11 9 12 16 17 18 22 21 22 30 26 27 32 28 26 25 25 11
43 39 39 38 37 40 40 39 47 58 61 52 38 38 39 33 24 27 27 18 25 23 26 16 21 18 4 9 12 14 11 11 14 15 18 25 30 25 25 29 32 32 20 38
41 41 40 41 43 43 39 39 49 56 66 58 47 39 41 31 32 13 20 35 22 18 14 12 19 14 1 9 15 14 8 11 14 14 17 22 25 22 20 26 36 32 34 32
39 39 40 41 41 38 34 37 48 58 66 63 57 44 41 33 24 20 18 16 13 11 6 6 14 10 12 26 19 16 13 19 18 19 20 21 29 29 24 35 22 26 32 34
37 38 38 37 40 37 31 33 44 55 65 66 59 46 43 29 29 20 13 16 7 7 10 5 10 10 15 30 19 15 17 16 21 20 23 25 29 33 28 19 26 27 25 23
42 43 40 38 40 38 28 31 38 47 61 63 58 52 46 38 33 31 28 30 16 15 13 5 10 11 8 27 26 21 17 17 19 22 22 28 32 27 23 25 29 24 26 25
40 41 41 40 40 33 31 32 35 44 58 64 68 59 51 43 37 24 22 27 32 35 29 14 10 10 8 24 31 27 20 23 22 21 27 28 27 26 24 27 29 20 14 19
38 41 41 40 41 38 37 34 35 44 56 63 72 68 52 56 50 25 39 26 27 33 27 12 8 11 11 23 28 34 25 26 28 28 21 23 19 18 23 25 23 24 28 28
41 41 41 42 40 38 42 41 45 46 56 59 69 75 60 60 63 58 41 43 40 33 19 9 11 11 10 19 28 31 31 32 32 31 24 23 20 26 29 33 32 29 33 32
45 43 39 41 40 40 44 52 44 44 51 56 59 70 72 68 61 54 54 37 33 38 20 28 19 16 11 12 28 35 38 36 34 37 31 28 33 24 21 21 23 30 36 37
54 51 46 46 42 42 49 54 49 44 39 48 57 61 73 77 73 65 53 61 45 38 37 33 26 18 15 14 26 32 39 39 32 42 36 33 34 29 27 27 27 28 30 30
62 59 57 52 47 47 55 55 49 46 41 44 52 60 67 75 77 78 75 59 59 47 38 34 31 22 21 19 22 32 42 41 37 32 37 38 36 35 31 26 28 30 29 29
72 73 66 59 53 57 56 54 44 42 42 45 48 55 66 71 76 79 78 60 54 55 46 35 40 31 27 24 20 31 38 42 38 38 33 36 37 38 35 34 33 28 30 29
79 78 72 68 65 59 57 52 45 43 44 49 52 53 60 68 73 74 77 67 62 57 51 34 43 41 34 31 24 24 36 44 42 40 39 38 37 37 36 35 34 32 32 33
86 83 80 78 70 66 58 51 45 44 43 50 55 50 54 60 67 74 72 73 67 63 51 45 31 32 35 34 25 26 26 36 41 43 42 42 43 44 44 42 41 39 39 39
Wind_Direction
223 229 233 219 213 220 226 218 228 242 232 266 301 314 329 320 321 347 6 357 10 344 348 345 308 215 221 217 218 224 227 229 229 230 229 227 231 233 241 244 241 246 260 235
222 227 228 231 226 229 221 224 237 254 250 260 276 285 294 292 316 346 9 1 10 350 351 354 262 223 236 229 220 218 224 231 234 233 229 229 233 235 238 242 244 245 243 235
233 230 229 230 232 231 232 227 233 238 240 240 261 189 291 308 283 325 342 341 359 357 2 348 308 275 264 258 249 239 233 236 235 236 233 233 233 235 229 232 240 239 232 241
238 237 236 240 241 236 233 236 228 231 239 227 246 259 237 254 291 294 320 330 360 348 353 1 301 278 262 250 260 263 270 267 247 237 235 236 237 236 234 235 233 236 238 244
237 239 237 237 239 238 225 234 232 227 232 228 250 257 251 296 295 297 335 315 352 351 346 360 356 305 264 240 249 261 276 279 266 243 231 231 233 231 234 231 235 234 238 245
239 239 236 231 229 224 225 224 226 224 228 236 236 260 254 266 285 307 325 311 343 0 1 322 289 286 260 254 236 255 261 270 259 244 232 224 222 225 228 227 230 226 226 232
234 235 233 229 232 229 230 237 230 223 229 229 230 230 238 292 264 328 337 323 335 349 357 246 250 242 270 242 235 240 246 254 244 223 227 220 217 220 224 222 227 230 219 209
228 229 230 228 229 227 224 244 236 231 225 221 227 216 270 263 309 328 293 317 287 335 336 346 293 267 256 238 236 233 234 237 236 226 212 210 215 215 216 221 223 224 227 218
223 225 225 227 228 228 223 229 230 225 224 213 217 215 264 259 244 311 310 320 310 330 336 345 339 301 276 241 237 228 227 220 237 239 233 217 214 214 210 215 219 224 226 222
217 223 229 224 228 228 225 225 228 224 215 211 212 213 227 297 293 283 305 299 299 324 328 339 345 330 286 254 230 226 226 223 235 240 234 224 220 222 215 215 214 217 212 206
222 225 231 226 233 229 235 226 222 222 223 216 209 222 231 231 283 304 299 290 297 302 320 328 345 339 323 255 222 227 227 226 239 241 234 223 218 219 219 221 211 202 203 208
226 225 236 233 230 234 236 230 223 220 220 220 218 225 231 232 243 285 294 281 280 297 316 344 345 336 326 257 216 228 230 229 240 235 210 213 214 215 217 218 202 194 194 192
233 229 237 241 236 241 240 229 222 219 219 210 216 213 232 235 240 277 291 283 286 307 298 336 339 337 322 225 202 211 213 209 224 226 211 204 205 210 204 207 187 174 174 195
235 235 236 235 233 233 239 237 225 216 215 212 211 220 235 238 239 267 262 299 261 277 279 325 345 343 174 171 179 159 138 185 172 177 186 187 193 201 189 171 178 184 193 198
236 236 236 236 238 238 239 237 228 218 215 212 213 216 226 235 233 243 272 298 257 268 276 312 354 341 174 155 152 137 133 148 148 149 155 158 163 150 142 152 154 190 207 215
235 232 230 229 235 236 239 238 225 214 215 210 212 211 218 216 207 231 280 240 259 287 332 334 346 354 186 172 174 152 170 160 158 144 154 144 151 155 145 168 184 194 199 198
233 231 230 227 228 230 234 234 225 211 215 214 209 209 214 209 217 245 224 247 275 295 316 315 341 336 222 186 195 185 162 180 176 149 155 150 150 160 177 187 188 192 202 208
240 240 237 231 229 224 222 225 222 210 212 208 205 206 210 206 207 189 214 249 273 280 303 305 312 315 311 195 193 192 195 182 187 169 152 157 159 171 188 183 188 181 214 209
242 237 233 231 229 221 223 224 219 213 210 210 202 202 206 209 205 196 217 222 244 261 281 274 273 297 312 203 198 199 192 182 194 186 189 171 175 180 201 198 199 214 215 215
238 238 235 235 230 225 224 223 222 215 214 209 208 204 196 208 214 213 204 219 249 246 265 274 254 280 283 211 197 200 195 188 188 186 190 200 194 199 199 204 213 221 229 236
241 238 234 233 230 227 229 228 221 219 219 213 209 210 210 215 220 218 215 216 236 233 260 285 277 259 263 234 200 198 199 202 201 197 201 208 213 219 226 226 228 232 236 240
239 237 235 235 229 225 230 232 224 221 218 220 214 210 214 214 219 217 223 218 221 235 257 267 271 248 261 251 208 204 200 205 214 208 215 222 220 227 234 239 243 251 248 246
235 238 238 232 229 226 233 231 220 220 214 218 217 213 212 217 220 226 226 220 229 237 241 252 260 240 251 243 212 209 204 205 211 216 221 229 230 232 241 246 248 258 253 250
230 233 233 232 231 231 234 234 224 217 215 222 220 215 215 212 218 226 228 225 231 230 228 223 245 241 234 238 221 211 208 206 208 210 223 228 232 239 247 248 250 253 252 259
232 230 231 231 230 232 232 236 222 214 214 221 222 217 216 217 213 221 228 231 228 230 224 231 231 239 237 240 223 213 215 211 214 221 226 233 238 239 244 250 254 260 264 265
232 232 229 231 231 232 233 235 225 212 214 223 224 218 216 218 218 217 222 230 230 229 215 217 218 215 217 229 235 223 217 221 220 222 227 233 239 244 246 251 255 258 263 269